Location: ?????????
(54.7630°N, 39.4991°E)
Time: 10:44:03
(UTC+00:00)

Cosmos 1980 - Pass Details

Date: 14 April 2026
Orbit: 838 x 845 km, 71.0° (Epoch: 19 May)

Event Time Altitude Azimuth Distance (km) Brightness Sun altitude
Rises 18:15:41 0° 195° (SSW) 3,382 6.6 -14.7°
Reaches altitude 10° 18:18:09 10° 191° (S) 2,451 5.8 -15.0°
Maximum altitude 18:23:38 56° 115° (ESE) 997 3.7 -15.6°
Drops below altitude 10° 18:29:08 10° 39° (NE) 2,465 6.2 -16.1°
Sets 18:31:37 0° 35° (NE) 3,404 7.0 -16.4°
